Naples, FL

5:28 PM EST on February 20, 2018 (GMT -0500)
Naples Municipal

Weather History for KAPF - February, 2014

Change the Weather History Date:

Tuesday, February 11, 2014

  Actual Average Record
Temperature  
Mean Temperature 69 °F 66 °F  
Max Temperature 78 °F 76 °F 87 °F (2018)
Min Temperature 60 °F 56 °F 33 °F (1971)
Degree Days  
Heating Degree Days 0 2  
Month to date heating degree days 0 22  
Since 1 July heating degree days 125 202  
Cooling Degree Days 4 4  
Month to date cooling degree days 98 34  
Year to date cooling degree days 189 120  
Growing Degree Days 19 (Base 50)    
Moisture  
Dew Point 63 °F    
Average Humidity 80    
Maximum Humidity 97    
Minimum Humidity 62    
Precipitation  
Precipitation 0.00 in 0.09 in 0.35 in (2012)
Month to date precipitation T 0.80  
Year to date precipitation 2.39 2.65  
Snow  
Snow 0.00 in - - ()
Month to date snowfall 0.0  
Since 1 July snowfall 0.0  
Snow Depth 0.00 in    
Sea Level Pressure  
Sea Level Pressure 30.04 in    
Wind  
Wind Speed 4 mph (WSW)    
Max Wind Speed 14 mph    
Max Gust Speed 17 mph    
Visibility 10 miles    
Events      
T = Trace of Precipitation, MM = Missing Value Source: NWS Daily Summary

Daily Weather History Graph

Daily Weather History Graph

Search for Another Location

Airport or City:

Trip Planner

Search our weather history database for the weather conditions in past years. The results will help you decide how hot, cold, wet, or windy it might be!

Date:

Astronomy

Feb. 11, 2014 Rise Set
Actual Time 7:05 AM EST 6:17 PM EST
Civil Twilight 6:41 AM EST 6:41 PM EST
Nautical Twilight 6:14 AM EST 7:08 PM EST
Astronomical Twilight 5:47 AM EST 7:35 PM EST
Moon 3:43 PM EST (2/11) 4:33 AM EST (2/11)
Length of Visible Light 11h 59m
Length of Day
11h 11m
Waxing Gibbous, 90% of the Moon is Illuminated
Feb 11
Waxing Gibbous
Feb 14
Full
Feb 22
Last Quarter
Mar 1
New
Mar 8
First Quarter

Hourly Weather History & Observations

Time (EST) Temp. Dew Point Humidity Pressure Visibility Wind Dir Wind Speed Gust Speed Precip Events Conditions
12:53 AM 63.0 °F 59.0 °F 87% 30.04 in 10.0 mi Calm Calm - N/A   Clear
1:53 AM 62.1 °F 57.9 °F 86% 30.03 in 10.0 mi Calm Calm - N/A   Clear
2:53 AM 62.1 °F 57.9 °F 86% 30.02 in 10.0 mi NNE 3.5 mph - N/A   Clear
3:53 AM 62.1 °F 59.0 °F 90% 30.01 in 10.0 mi Calm Calm - N/A   Clear
4:53 AM 60.1 °F 59.0 °F 96% 30.02 in 10.0 mi NE 3.5 mph - N/A   Clear
5:53 AM 60.1 °F 59.0 °F 96% 30.03 in 10.0 mi Calm Calm - N/A   Clear
6:53 AM 60.1 °F 59.0 °F 96% 30.04 in 10.0 mi Calm Calm - N/A   Clear
7:53 AM 63.0 °F 61.0 °F 93% 30.05 in 8.0 mi Calm Calm - N/A   Clear
8:53 AM 68.0 °F 64.9 °F 90% 30.07 in 10.0 mi ESE 3.5 mph - N/A   Clear
9:53 AM 73.9 °F 66.0 °F 76% 30.08 in 10.0 mi Variable 3.5 mph - N/A   Clear
10:53 AM 77.0 °F 64.9 °F 66% 30.08 in 10.0 mi WSW 6.9 mph - N/A   Clear
11:53 AM 77.0 °F 64.9 °F 66% 30.07 in 10.0 mi SW 12.7 mph - N/A   Partly Cloudy
12:53 PM 78.1 °F 64.9 °F 64% 30.05 in 10.0 mi SSW 11.5 mph - N/A   Partly Cloudy
1:53 PM 78.1 °F 64.9 °F 64% 30.04 in 10.0 mi SW 10.4 mph - N/A   Clear
2:53 PM 77.0 °F 64.0 °F 64% 30.02 in 10.0 mi SW 11.5 mph - N/A   Clear
3:53 PM 75.9 °F 66.0 °F 71% 30.01 in 10.0 mi West 10.4 mph - N/A   Clear
4:53 PM 73.0 °F 64.9 °F 76% 30.01 in 10.0 mi West 6.9 mph - N/A   Clear
5:53 PM 72.0 °F 64.0 °F 76% 30.02 in 10.0 mi WSW 4.6 mph - N/A   Clear
6:53 PM 69.1 °F 64.9 °F 87% 30.03 in 10.0 mi WNW 5.8 mph - N/A   Clear
7:53 PM 68.0 °F 64.9 °F 90% 30.03 in 10.0 mi Calm Calm - N/A   Clear
8:53 PM 68.0 °F 64.9 °F 90% 30.05 in 10.0 mi NW 5.8 mph - N/A   Clear
9:53 PM 66.9 °F 63.0 °F 87% 30.05 in 10.0 mi Calm Calm - N/A   Clear
10:53 PM 64.9 °F 62.1 °F 90% 30.06 in 10.0 mi Calm Calm - N/A   Clear
11:53 PM 64.0 °F 62.1 °F 93% 30.05 in 10.0 mi Calm Calm - N/A   Clear